Weather History for Gaylord, MI

Change the Weather History Date:

Thursday, August 8, 2013

  Actual Average Record
Temperature  
Mean Temperature 60 °F -  
Max Temperature 73 °F 79 °F 93 °F (2001)
Min Temperature 48 °F 55 °F 39 °F (1989)
Degree Days  
Heating Degree Days 5    
Growing Degree Days 10 (Base 50)    
Moisture  
Dew Point 48 °F    
Average Humidity 65    
Maximum Humidity 97    
Minimum Humidity 40    
Precipitation  
Precipitation 0.01 in - - ()
Sea Level Pressure  
Sea Level Pressure 30.03 in    
Wind  
Wind Speed 3 mph (WNW)    
Max Wind Speed 12 mph    
Max Gust Speed 16 mph    
Visibility 10 miles    
Events      
Averages and records for this station are not official NWS values.
T = Trace of Precipitation, MM = Missing Value Source: NWS Daily Summary

Daily Weather History Graph

Daily Weather History Graph

Search for Another Location

Airport:

Trip Planner

Search our weather history database for the weather conditions in past years. The results will help you decide how hot, cold, wet, or windy it might be!

Date:

Astronomy

Aug. 08, 2013 Rise Set
Actual Time 6:32 AM EDT 8:55 PM EDT
Civil Twilight 5:59 AM EDT 9:28 PM EDT
Nautical Twilight 5:18 AM EDT 10:08 PM EDT
Astronomical Twilight 4:32 AM EDT 10:54 PM EDT
Moon 8:26 AM EDT (8/8) 9:24 PM EDT (8/8)
Length of Visible Light 15h 28m
Length of Day
14h 23m
Waxing Crescent, 3% of the Moon is Illuminated
Aug 8
Waxing Crescent
Aug 14
First Quarter
Aug 20
Full
Aug 28
Last Quarter
Sep 5
New

Hourly Weather History & Observations

Time (EDT) Temp. Dew Point Humidity Pressure Visibility Wind Dir Wind Speed Gust Speed Precip Events Conditions
12:53 AM 55.9 °F 54.0 °F 93% 29.99 in 10.0 mi WNW 4.6 mph - N/A   Clear
2:53 AM 54.0 °F 53.1 °F 97% 29.99 in 10.0 mi Calm Calm - 0.01 in   Clear
3:53 AM 54.0 °F 52.0 °F 93% 30.00 in 10.0 mi Calm Calm - N/A   Clear
4:53 AM 51.1 °F 48.9 °F 92% 30.01 in 10.0 mi Calm Calm - N/A   Clear
5:53 AM 50.0 °F 48.9 °F 96% 30.04 in 10.0 mi Calm Calm - N/A   Clear
6:53 AM 48.9 °F 46.9 °F 93% 30.04 in 10.0 mi West 3.5 mph - N/A   Clear
7:53 AM 51.1 °F 50.0 °F 96% 30.03 in 9.0 mi Calm Calm - N/A   Clear
8:53 AM 57.9 °F 52.0 °F 81% 30.05 in 10.0 mi Calm Calm - N/A   Clear
9:53 AM 64.0 °F 46.9 °F 54% 30.04 in 10.0 mi Variable 4.6 mph - N/A   Clear
10:53 AM 66.0 °F 45.0 °F 47% 30.06 in 10.0 mi Calm Calm - N/A   Clear
11:53 AM 69.1 °F 45.0 °F 42% 30.06 in 10.0 mi Variable 3.5 mph - N/A   Clear
12:53 PM 70.0 °F 45.0 °F 41% 30.04 in 10.0 mi West 9.2 mph - N/A   Partly Cloudy
1:53 PM 72.0 °F 46.0 °F 40% 30.04 in 10.0 mi West 5.8 mph - N/A   Partly Cloudy
2:53 PM 72.0 °F 46.0 °F 40% 30.05 in 10.0 mi Variable 5.8 mph - N/A   Partly Cloudy
3:53 PM 72.0 °F 48.0 °F 43% 30.04 in 10.0 mi West 11.5 mph 16.1 mph N/A   Mostly Cloudy
4:53 PM 71.1 °F 46.9 °F 42% 30.04 in 10.0 mi Variable 5.8 mph - N/A   Clear
5:53 PM 71.1 °F 46.0 °F 41% 30.03 in 10.0 mi NW 4.6 mph - N/A   Clear
6:53 PM 71.1 °F 46.0 °F 41% 30.03 in 10.0 mi NNW 4.6 mph - N/A   Clear
7:53 PM 69.1 °F 46.9 °F 45% 30.02 in 10.0 mi Calm Calm - N/A   Clear
8:53 PM 64.9 °F 48.0 °F 54% 30.02 in 10.0 mi Calm Calm - N/A   Clear
9:53 PM 62.1 °F 48.9 °F 62% 30.04 in 10.0 mi Calm Calm - N/A   Clear
10:53 PM 57.9 °F 48.9 °F 72% 30.04 in 10.0 mi Calm Calm - N/A   Clear
11:53 PM 54.0 °F 48.0 °F 80% 30.02 in 10.0 mi Calm Calm - N/A   Clear